sat.trackr.live / text

‹ back to catalog

STARLINK-4535

NORAD 53392 · 2022-097E

PAYLOAD ACTIVE UNKNOWN

§ Identity

Operator
Country
US
Launch date
2022-08-10
Launch site
AFETR
Launch vehicle
Mass (kg)
RCS (m²)

Purposes: comms

External: N2YO · Heavens-Above · Gunter

§ Orbital elements

Epoch: 2026-05-25T03:30:20.496384Z

Period
95.44 min
Inclination
53.2128°
Eccentricity
0.0001027
Mean motion
15.08848208 rev/d
Perigee alt
539.0 km
Apogee alt
540.4 km
Semi-major
6,917.9 km
B*
-3.5803e-5
RAAN
140.8924°
Arg perigee
58.2816°
Mean anomaly
301.8276°
Rev number
21,021

§ Raw data

STARLINK-45351 53392U 22097E   26145.14607056 -.00000858  00000+0 -35803-4 0  99942 53392  53.2128 140.8924 0001027  58.2816 301.8276 15.08848208210210

JSON: /api/v1/satellites/53392 · /tle

For live sub-satellite position, see the globe view (requires WebGL).

§ Visibility from observer

Set your observer location to see the next 7 days of passes ≥ 10°. The values pass through the URL so the page stays shareable.

No JS? Fill the form by hand. The geolocation button needs JavaScript.